Location: Huberhof
(49.2050°N, 7.4980°E)
Time: 04:57:09
(UTC+00:00)

Ariane Rocket - Pass Details

Date: 29 October 2020
Orbit: 759 x 771 km, 98.7° (Epoch: 25 November)

Event Time Altitude Azimuth Distance (km) Brightness Sun altitude
Exits shadow 17:53:41 22° 52° (NE) 1,664 4.3 -16.9°
Drops below altitude 10° 17:57:06 10° 10° (N) 2,324 5.4 -17.4°
Sets 17:59:53 0° 355° (N) 3,254 6.3 -17.9°
